When you browse on this site, cookies collect data to enhance your experience and personalize the content and advertising you see.
Visit our Privacy Policy to learn more. By continuing to use the site, you agree to this use of cookies and data.

Hourly Weather Corozal

Today, 7 July, Tuesday

Time Temperature Precipitation Wind Pressure Humidity
00:00 +28°C° 0 mm 3 mps 760 mmHg 91%
01:00 +27°C° 0 mm 2 mps 760 mmHg 92%
02:00 +27°C° 0 mm 2 mps 759 mmHg 92%
03:00 +27°C° 0 mm 2 mps 759 mmHg 93%
04:00 +27°C° 0 mm 2 mps 759 mmHg 93%
05:00 +27°C° 0 mm 2 mps 759 mmHg 93%
06:00 +27°C° 0 mm 2 mps 759 mmHg 93%
07:00 +29°C° 0.3 mm 2 mps 760 mmHg 87%
08:00 +30°C° 0.3 mm 3 mps 760 mmHg 81%
09:00 +31°C° 0.3 mm 3 mps 761 mmHg 75%
10:00 +33°C° 0.9 mm 3 mps 761 mmHg 74%
11:00 +33°C° 0.9 mm 3 mps 760 mmHg 73%
12:00 +33°C° 0.9 mm 3 mps 760 mmHg 72%
13:00 +34°C° 0.2 mm 3 mps 760 mmHg 69%
14:00 +34°C° 0.2 mm 3 mps 759 mmHg 66%
15:00 +34°C° 0.2 mm 3 mps 759 mmHg 64%
16:00 +33°C° 0 mm 3 mps 758 mmHg 69%
17:00 +31°C° 0 mm 3 mps 758 mmHg 74%
18:00 +30°C° 0 mm 2 mps 758 mmHg 79%
19:00 +29°C° 0 mm 2 mps 759 mmHg 83%
20:00 +28°C° 0 mm 2 mps 759 mmHg 87%
21:00 +27°C° 0 mm 2 mps 760 mmHg 91%
22:00 +27°C° 0 mm 2 mps 760 mmHg 92%
23:00 +27°C° 0 mm 2 mps 760 mmHg 93%

Tomorrow, 8 July, Wednesday

Time Temperature Precipitation Wind Pressure Humidity
00:00 +27°C° 0 mm 2 mps 760 mmHg 94%
01:00 +27°C° 0 mm 2 mps 759 mmHg 94%
02:00 +27°C° 0 mm 1 mps 759 mmHg 94%
03:00 +27°C° 0 mm 1 mps 758 mmHg 94%
04:00 +27°C° 0 mm 1 mps 759 mmHg 93%
05:00 +27°C° 0 mm 1 mps 759 mmHg 93%
06:00 +27°C° 0 mm 1 mps 759 mmHg 93%
07:00 +29°C° 0 mm 2 mps 759 mmHg 84%
08:00 +31°C° 0 mm 2 mps 759 mmHg 75%
09:00 +33°C° 0 mm 3 mps 760 mmHg 66%
10:00 +34°C° 0 mm 3 mps 759 mmHg 62%
11:00 +35°C° 0 mm 3 mps 759 mmHg 59%
12:00 +36°C° 0 mm 3 mps 759 mmHg 55%
13:00 +35°C° 0 mm 3 mps 758 mmHg 54%
14:00 +35°C° 0 mm 3 mps 758 mmHg 54%
15:00 +35°C° 0 mm 3 mps 757 mmHg 54%
16:00 +34°C° 0 mm 3 mps 757 mmHg 61%
17:00 +31°C° 0 mm 3 mps 757 mmHg 68%
18:00 +30°C° 0 mm 2 mps 757 mmHg 75%
19:00 +28°C° 0 mm 2 mps 758 mmHg 80%
20:00 +27°C° 0 mm 2 mps 758 mmHg 86%
21:00 +26°C° 0 mm 2 mps 759 mmHg 91%
22:00 +26°C° 0 mm 2 mps 759 mmHg 92%
23:00 +26°C° 0 mm 2 mps 759 mmHg 93%

Day after tomorrow, 9 July, Thursday

Time Temperature Precipitation Wind Pressure Humidity
00:00 +26°C° 0 mm 2 mps 758 mmHg 94%
01:00 +26°C° 0 mm 1 mps 758 mmHg 94%
02:00 +26°C° 0 mm 1 mps 758 mmHg 94%
03:00 +25°C° 0 mm 1 mps 758 mmHg 95%
04:00 +26°C° 0 mm 1 mps 758 mmHg 94%
05:00 +26°C° 0 mm 1 mps 758 mmHg 94%
06:00 +24°C° 0 mm 0 mps 758 mmHg 93%
07:00 +28°C° 0 mm 1 mps 758 mmHg 83%
08:00 +30°C° 0 mm 1 mps 759 mmHg 74%
09:00 +32°C° 0 mm 2 mps 759 mmHg 64%
10:00 +34°C° 0 mm 2 mps 759 mmHg 60%
11:00 +35°C° 0 mm 2 mps 758 mmHg 55%
12:00 +36°C° 0 mm 2 mps 758 mmHg 51%
13:00 +36°C° 0 mm 2 mps 758 mmHg 52%
14:00 +36°C° 0 mm 3 mps 757 mmHg 53%
15:00 +36°C° 0 mm 3 mps 757 mmHg 55%
16:00 +34°C° 0 mm 3 mps 757 mmHg 61%
17:00 +33°C° 0 mm 3 mps 757 mmHg 68%
18:00 +30°C° 0 mm 3 mps 757 mmHg 75%
19:00 +29°C° 0 mm 2 mps 758 mmHg 80%
20:00 +28°C° 0 mm 2 mps 758 mmHg 85%
21:00 +27°C° 0 mm 2 mps 759 mmHg 90%
22:00 +27°C° 0.1 mm 2 mps 759 mmHg 91%
23:00 +27°C° 0.1 mm 2 mps 759 mmHg 93%

10 July, Friday

Time Temperature Precipitation Wind Pressure Humidity
00:00 +27°C° 0.1 mm 2 mps 759 mmHg 94%
01:00 +27°C° 0 mm 1 mps 759 mmHg 94%
02:00 +26°C° 0 mm 1 mps 758 mmHg 95%
03:00 +26°C° 0 mm 1 mps 758 mmHg 95%
04:00 +26°C° 0 mm 1 mps 758 mmHg 95%
05:00 +27°C° 0 mm 1 mps 758 mmHg 94%
06:00 +27°C° 0 mm 1 mps 759 mmHg 94%
07:00 +29°C° 0 mm 1 mps 759 mmHg 85%
08:00 +30°C° 0 mm 2 mps 759 mmHg 77%
09:00 +32°C° 0 mm 2 mps 760 mmHg 69%
10:00 +34°C° 0.1 mm 3 mps 760 mmHg 65%
11:00 +35°C° 0.1 mm 3 mps 759 mmHg 60%
12:00 +36°C° 0.1 mm 3 mps 759 mmHg 56%
13:00 +36°C° 0.3 mm 3 mps 759 mmHg 58%
14:00 +35°C° 0.3 mm 4 mps 759 mmHg 59%
15:00 +35°C° 0.3 mm 4 mps 758 mmHg 61%
16:00 +34°C° 0 mm 3 mps 758 mmHg 66%
17:00 +33°C° 0 mm 3 mps 758 mmHg 71%
18:00 +30°C° 0 mm 2 mps 759 mmHg 77%
19:00 +30°C° 0 mm 2 mps 759 mmHg 80%
20:00 +29°C° 0 mm 2 mps 760 mmHg 84%
21:00 +28°C° 0 mm 2 mps 760 mmHg 88%
22:00 +28°C° 0 mm 2 mps 760 mmHg 89%
23:00 +28°C° 0 mm 2 mps 760 mmHg 91%

11 July, Saturday

Time Temperature Precipitation Wind Pressure Humidity
00:00 +27°C° 0 mm 2 mps 759 mmHg 92%
01:00 +27°C° 0 mm 2 mps 759 mmHg 93%
02:00 +27°C° 0 mm 2 mps 759 mmHg 93%
03:00 +27°C° 0 mm 2 mps 759 mmHg 94%
04:00 +27°C° 0 mm 2 mps 759 mmHg 94%
05:00 +27°C° 0 mm 2 mps 759 mmHg 93%
06:00 +27°C° 0 mm 2 mps 759 mmHg 93%
07:00 +29°C° 0 mm 2 mps 759 mmHg 84%
08:00 +30°C° 0 mm 3 mps 760 mmHg 75%
09:00 +33°C° 0 mm 3 mps 760 mmHg 66%
10:00 +34°C° 0 mm 3 mps 760 mmHg 61%
11:00 +35°C° 0 mm 3 mps 760 mmHg 57%
12:00 +36°C° 0 mm 3 mps 759 mmHg 53%
13:00 +36°C° 0.1 mm 3 mps 759 mmHg 54%
14:00 +36°C° 0.1 mm 3 mps 759 mmHg 54%
15:00 +35°C° 0.1 mm 3 mps 758 mmHg 55%
16:00 +34°C° 0 mm 3 mps 758 mmHg 61%
17:00 +33°C° 0 mm 3 mps 758 mmHg 68%
18:00 +30°C° 0 mm 2 mps 758 mmHg 75%
19:00 +29°C° 0 mm 2 mps 759 mmHg 80%
20:00 +28°C° 0 mm 2 mps 759 mmHg 85%
21:00 +27°C° 0 mm 2 mps 760 mmHg 90%
22:00 +27°C° 0 mm 2 mps 759 mmHg 91%
23:00 +26°C° 0 mm 1 mps 759 mmHg 92%

12 July, Sunday

Time Temperature Precipitation Wind Pressure Humidity
00:00 +26°C° 0 mm 1 mps 759 mmHg 92%
01:00 +26°C° 0 mm 1 mps 759 mmHg 93%
02:00 +26°C° 0 mm 1 mps 759 mmHg 94%
03:00 +26°C° 0 mm 1 mps 759 mmHg 95%
04:00 +26°C° 0.1 mm 1 mps 759 mmHg 95%
05:00 +26°C° 0.1 mm 1 mps 759 mmHg 94%
06:00 +26°C° 0.1 mm 1 mps 759 mmHg 94%
07:00 +28°C° 0.1 mm 2 mps 759 mmHg 85%
08:00 +30°C° 0.1 mm 2 mps 759 mmHg 76%
09:00 +32°C° 0.1 mm 2 mps 760 mmHg 67%
10:00 +34°C° 0 mm 3 mps 759 mmHg 62%
11:00 +34°C° 0 mm 3 mps 759 mmHg 56%
12:00 +35°C° 0 mm 3 mps 759 mmHg 51%
13:00 +35°C° 0 mm 3 mps 758 mmHg 51%
14:00 +35°C° 0 mm 3 mps 758 mmHg 51%
15:00 +35°C° 0 mm 3 mps 757 mmHg 51%
16:00 +34°C° 0 mm 3 mps 757 mmHg 58%
17:00 +31°C° 0 mm 3 mps 757 mmHg 66%
18:00 +30°C° 0 mm 2 mps 757 mmHg 73%
19:00 +29°C° 0 mm 2 mps 758 mmHg 79%
20:00 +28°C° 0 mm 2 mps 759 mmHg 85%
21:00 +26°C° 0 mm 2 mps 759 mmHg 91%
22:00 +26°C° 0 mm 2 mps 759 mmHg 92%
23:00 +26°C° 0 mm 2 mps 759 mmHg 93%
Show more